Change the Weather History Date:

Friday, December 16, 2011

  Actual Average Record
Temperature  
Mean Temperature 40 °F -  
Max Temperature 46 °F 37 °F 53 °F (2008)
Min Temperature 33 °F 24 °F 8 °F (2013)
Degree Days  
Heating Degree Days 26    
Moisture  
Dew Point 24 °F    
Average Humidity 55    
Maximum Humidity 70    
Minimum Humidity 42    
Precipitation  
Precipitation 0.00 in - - ()
Sea Level Pressure  
Sea Level Pressure 30.07 in    
Wind  
Wind Speed 10 mph (NW)    
Max Wind Speed 15 mph    
Max Gust Speed 34 mph    
Visibility 10 miles    
Events      
Averages and records for this station are not official NWS values.
T = Trace of Precipitation, MM = Missing Value Source: NWS Daily Summary

Daily Weather History Graph

Daily Weather History Graph

Search for Another Location

Airport or City:

Trip Planner

Search our weather history database for the weather conditions in past years. The results will help you decide how hot, cold, wet, or windy it might be!

Date:

Astronomy

Dec. 16, 2011 Rise Set
Actual Time 7:12 AM EST 4:23 PM EST
Civil Twilight 6:40 AM EST 4:55 PM EST
Nautical Twilight 6:06 AM EST 5:30 PM EST
Astronomical Twilight 5:32 AM EST 6:03 PM EST
Moon 10:58 PM EST (12/16) 10:53 AM EST (12/16)
Length of Visible Light 10h 14m
Length of Day
9h 11m
Waning Gibbous, 65% of the Moon is Illuminated
Dec 16
Waning Gibbous
Dec 17
Last Quarter
Dec 24
New
Jan 1
First Quarter
Jan 9
Full

Hourly Weather History & Observations

Time (EST) Temp. Windchill Dew Point Humidity Pressure Visibility Wind Dir Wind Speed Gust Speed Precip Events Conditions
5:45 AM 46.4 °F 40.1 °F 26.6 °F 46% 29.86 in 10.0 mi WNW 15.0 mph 31.1 mph N/A   Clear
6:45 AM 44.6 °F 38.8 °F 24.8 °F 46% 29.89 in 10.0 mi West 11.5 mph 28.8 mph N/A   Scattered Clouds
7:45 AM 42.8 °F 36.6 °F 26.6 °F 53% 29.97 in 10.0 mi NW 11.5 mph 34.5 mph N/A   Mostly Cloudy
8:45 AM 42.8 °F 35.4 °F 21.2 °F 42% 30.01 in 10.0 mi NW 15.0 mph 28.8 mph N/A   Partly Cloudy
10:45 AM 42.8 °F 36.6 °F 21.2 °F 42% 30.05 in 10.0 mi WNW 11.5 mph 23.0 mph N/A   Mostly Cloudy
12:45 PM 44.6 °F 38.8 °F 23.0 °F 43% 30.05 in 10.0 mi NNW 11.5 mph 19.6 mph N/A   Scattered Clouds
1:45 PM 44.6 °F 38.4 °F 23.0 °F 43% 30.07 in 10.0 mi North 12.7 mph 20.7 mph N/A   Scattered Clouds
2:45 PM 42.8 °F 36.6 °F 21.2 °F 42% 30.08 in 10.0 mi NW 11.5 mph 19.6 mph N/A   Scattered Clouds
3:55 PM 41.0 °F 33.9 °F 24.8 °F 53% 30.10 in 10.0 mi NW 12.7 mph - N/A   Scattered Clouds
4:45 PM 39.2 °F 33.0 °F 24.8 °F 56% 30.13 in 10.0 mi NNW 9.2 mph - N/A   Mostly Cloudy
5:45 PM 39.2 °F 35.0 °F 24.8 °F 56% 30.10 in 10.0 mi NNW 5.8 mph - N/A   Clear
6:45 PM 37.4 °F 32.8 °F 24.8 °F 60% 30.12 in 10.0 mi NNW 5.8 mph - N/A   Clear
7:45 PM 37.4 °F 32.8 °F 24.8 °F 60% 30.12 in 10.0 mi NNW 5.8 mph - N/A   Clear
9:35 PM 37.4 °F - 24.8 °F 60% 30.12 in 10.0 mi Calm Calm - N/A   Clear
9:55 PM 35.6 °F - 24.8 °F 65% 30.13 in 10.0 mi Calm Calm - N/A   Clear
10:15 PM 35.6 °F - 24.8 °F 65% 30.12 in 10.0 mi Calm Calm - N/A   Clear
10:35 PM 35.6 °F - 24.8 °F 65% 30.11 in 10.0 mi Calm Calm - N/A   Clear
10:55 PM 35.6 °F - 24.8 °F 65% 30.10 in 10.0 mi Calm Calm - N/A   Clear
11:15 PM 33.8 °F - 24.8 °F 70% 30.09 in 10.0 mi Calm Calm - N/A   Clear
11:35 PM 35.6 °F 32.8 °F 24.8 °F 65% 30.08 in 10.0 mi NW 3.5 mph - N/A   Clear